Year,Month,Day,Hour,Minute,Value (Times are PST for temperature in C)
2014,08,03,00,00,19.70
2014,08,03,00,01,19.60
2014,08,03,00,02,19.60
2014,08,03,00,03,19.50
2014,08,03,00,04,19.50
2014,08,03,00,05,19.40
2014,08,03,00,06,19.40
2014,08,03,00,07,19.30
2014,08,03,00,08,19.30
2014,08,03,00,09,19.30
2014,08,03,00,10,19.20
2014,08,03,00,11,19.20
2014,08,03,00,12,19.20
2014,08,03,00,13,19.10
2014,08,03,00,14,19.10
2014,08,03,00,15,19.00
2014,08,03,00,16,19.00
2014,08,03,00,17,18.90
2014,08,03,00,18,18.90
2014,08,03,00,19,18.90
2014,08,03,00,20,18.80
2014,08,03,00,21,18.80
2014,08,03,00,22,18.80
2014,08,03,00,23,18.70
2014,08,03,00,24,18.70
2014,08,03,00,25,18.70
2014,08,03,00,26,18.60
2014,08,03,00,27,18.60
2014,08,03,00,28,18.60
2014,08,03,00,29,18.60
2014,08,03,00,30,18.50
2014,08,03,00,31,18.50
2014,08,03,00,32,18.40
2014,08,03,00,33,18.40
2014,08,03,00,34,18.40
2014,08,03,00,35,18.40
2014,08,03,00,36,18.30
2014,08,03,00,37,18.30
2014,08,03,00,38,18.30
2014,08,03,00,39,18.20
2014,08,03,00,40,18.20
2014,08,03,00,41,18.20
2014,08,03,00,42,18.20
2014,08,03,00,43,18.20
2014,08,03,00,44,18.10
2014,08,03,00,45,18.10
2014,08,03,00,46,18.10
2014,08,03,00,47,18.10
2014,08,03,00,48,18.00
2014,08,03,00,49,18.00
2014,08,03,00,50,17.90
2014,08,03,00,51,17.90
2014,08,03,00,52,17.90
2014,08,03,00,53,17.90
2014,08,03,00,54,17.80
2014,08,03,00,55,17.80
2014,08,03,00,56,17.80
2014,08,03,00,57,17.80
2014,08,03,00,58,17.70
2014,08,03,00,59,17.70
2014,08,03,01,00,17.70
2014,08,03,01,01,17.70
2014,08,03,01,02,17.70
2014,08,03,01,03,17.60
2014,08,03,01,04,17.60
2014,08,03,01,05,17.60
2014,08,03,01,06,17.60
2014,08,03,01,07,17.60
2014,08,03,01,08,17.50
2014,08,03,01,09,17.50
2014,08,03,01,10,17.40
2014,08,03,01,11,17.40
2014,08,03,01,12,17.40
2014,08,03,01,13,17.40
2014,08,03,01,14,17.30
2014,08,03,01,15,17.30
2014,08,03,01,16,17.30
2014,08,03,01,17,17.30
2014,08,03,01,18,17.20
2014,08,03,01,19,17.20
2014,08,03,01,20,17.20
2014,08,03,01,21,17.20
2014,08,03,01,22,17.20
2014,08,03,01,23,17.10
2014,08,03,01,24,17.10
2014,08,03,01,25,17.10
2014,08,03,01,26,17.10
2014,08,03,01,27,17.10
2014,08,03,01,28,17.00
2014,08,03,01,29,17.00
2014,08,03,01,30,17.00
2014,08,03,01,31,16.90
2014,08,03,01,32,16.90
2014,08,03,01,33,16.90
2014,08,03,01,34,16.90
2014,08,03,01,35,16.90
2014,08,03,01,36,16.80
2014,08,03,01,37,16.80
2014,08,03,01,38,16.80
2014,08,03,01,39,16.80
2014,08,03,01,40,16.80
2014,08,03,01,41,16.80
2014,08,03,01,42,16.70
2014,08,03,01,43,16.70
2014,08,03,01,44,16.70
2014,08,03,01,45,16.70
2014,08,03,01,46,16.70
2014,08,03,01,47,16.60
2014,08,03,01,48,16.60
2014,08,03,01,49,16.60
2014,08,03,01,50,16.60
2014,08,03,01,51,16.50
2014,08,03,01,52,16.50
2014,08,03,01,53,16.50
2014,08,03,01,54,16.40
2014,08,03,01,55,16.40
2014,08,03,01,56,16.40
2014,08,03,01,57,16.40
2014,08,03,01,58,16.40
2014,08,03,01,59,16.30
2014,08,03,02,00,16.30
2014,08,03,02,01,16.30
2014,08,03,02,02,16.30
2014,08,03,02,03,16.30
2014,08,03,02,04,16.30
2014,08,03,02,05,16.30
2014,08,03,02,06,16.30
2014,08,03,02,07,16.30
2014,08,03,02,08,16.20
2014,08,03,02,09,16.20
2014,08,03,02,10,16.20
2014,08,03,02,11,16.20
2014,08,03,02,12,16.10
2014,08,03,02,13,16.10
2014,08,03,02,14,16.10
2014,08,03,02,15,16.10
2014,08,03,02,16,16.10
2014,08,03,02,17,16.00
2014,08,03,02,18,16.00
2014,08,03,02,19,15.90
2014,08,03,02,20,15.90
2014,08,03,02,21,15.90
2014,08,03,02,22,15.90
2014,08,03,02,23,15.80
2014,08,03,02,24,15.80
2014,08,03,02,25,15.80
2014,08,03,02,26,15.80
2014,08,03,02,27,15.80
2014,08,03,02,28,15.80
2014,08,03,02,29,15.70
2014,08,03,02,30,15.70
2014,08,03,02,31,15.70
2014,08,03,02,32,15.60
2014,08,03,02,33,15.60
2014,08,03,02,34,15.60
2014,08,03,02,35,15.60
2014,08,03,02,36,15.50
2014,08,03,02,37,15.50
2014,08,03,02,38,15.50
2014,08,03,02,39,15.40
2014,08,03,02,40,15.40
2014,08,03,02,41,15.40
2014,08,03,02,42,15.30
2014,08,03,02,43,15.30
2014,08,03,02,44,15.30
2014,08,03,02,45,15.30
2014,08,03,02,46,15.30
2014,08,03,02,47,15.30
2014,08,03,02,48,15.20
2014,08,03,02,49,15.20
2014,08,03,02,50,15.20
2014,08,03,02,51,15.20
2014,08,03,02,52,15.20
2014,08,03,02,53,15.20
2014,08,03,02,54,15.10
2014,08,03,02,55,15.10
2014,08,03,02,56,15.10
2014,08,03,02,57,15.00
2014,08,03,02,58,15.00
2014,08,03,02,59,15.00
2014,08,03,03,00,15.00
2014,08,03,03,01,15.00
2014,08,03,03,02,15.00
2014,08,03,03,03,15.00
2014,08,03,03,04,15.00
2014,08,03,03,05,15.00
2014,08,03,03,06,15.00
2014,08,03,03,07,15.00
2014,08,03,03,08,15.00
2014,08,03,03,09,15.00
2014,08,03,03,10,15.00
2014,08,03,03,11,15.00
2014,08,03,03,12,15.00
2014,08,03,03,13,15.00
2014,08,03,03,14,15.00
2014,08,03,03,15,15.00
2014,08,03,03,16,15.00
2014,08,03,03,17,15.00
2014,08,03,03,18,15.00
2014,08,03,03,19,15.00
2014,08,03,03,20,15.00
2014,08,03,03,21,14.90
2014,08,03,03,22,14.90
2014,08,03,03,23,14.90
2014,08,03,03,24,14.80
2014,08,03,03,25,14.80
2014,08,03,03,26,14.80
2014,08,03,03,27,14.80
2014,08,03,03,28,14.80
2014,08,03,03,29,14.80
2014,08,03,03,30,14.70
2014,08,03,03,31,14.70
2014,08,03,03,32,14.70
2014,08,03,03,33,14.70
2014,08,03,03,34,14.70
2014,08,03,03,35,14.70
2014,08,03,03,36,14.70
2014,08,03,03,37,14.60
2014,08,03,03,38,14.60
2014,08,03,03,39,14.60
2014,08,03,03,40,14.60
2014,08,03,03,41,14.60
2014,08,03,03,42,14.60
2014,08,03,03,43,14.60
2014,08,03,03,44,14.60
2014,08,03,03,45,14.50
2014,08,03,03,46,14.50
2014,08,03,03,47,14.50
2014,08,03,03,48,14.50
2014,08,03,03,49,14.50
2014,08,03,03,50,14.50
2014,08,03,03,51,14.40
2014,08,03,03,52,14.40
2014,08,03,03,53,14.40
2014,08,03,03,54,14.40
2014,08,03,03,55,14.40
2014,08,03,03,56,14.40
2014,08,03,03,57,14.40
2014,08,03,03,58,14.30
2014,08,03,03,59,14.30
2014,08,03,04,00,14.30
2014,08,03,04,01,14.30
2014,08,03,04,02,14.30
2014,08,03,04,03,14.30
2014,08,03,04,04,14.30
2014,08,03,04,05,14.30
2014,08,03,04,06,14.30
2014,08,03,04,07,14.30
2014,08,03,04,08,14.20
2014,08,03,04,09,14.20
2014,08,03,04,10,14.20
2014,08,03,04,11,14.20
2014,08,03,04,12,14.20
2014,08,03,04,13,14.20
2014,08,03,04,14,14.20
2014,08,03,04,15,14.20
2014,08,03,04,16,14.20
2014,08,03,04,17,14.20
2014,08,03,04,18,14.20
2014,08,03,04,19,14.20
2014,08,03,04,20,14.10
2014,08,03,04,21,14.10
2014,08,03,04,22,14.10
2014,08,03,04,23,14.10
2014,08,03,04,24,14.10
2014,08,03,04,25,14.10
2014,08,03,04,26,14.10
2014,08,03,04,27,14.00
2014,08,03,04,28,14.00
2014,08,03,04,29,14.00
2014,08,03,04,30,14.00
2014,08,03,04,31,13.90
2014,08,03,04,32,13.90
2014,08,03,04,33,13.90
2014,08,03,04,34,13.90
2014,08,03,04,35,13.90
2014,08,03,04,36,13.90
2014,08,03,04,37,13.90
2014,08,03,04,38,13.80
2014,08,03,04,39,13.80
2014,08,03,04,40,13.80
2014,08,03,04,41,13.80
2014,08,03,04,42,13.80
2014,08,03,04,43,13.80
2014,08,03,04,44,13.80
2014,08,03,04,45,13.70
2014,08,03,04,46,13.70
2014,08,03,04,47,13.70
2014,08,03,04,48,13.70
2014,08,03,04,49,13.70
2014,08,03,04,50,13.70
2014,08,03,04,51,13.70
2014,08,03,04,52,13.70
2014,08,03,04,53,13.70
2014,08,03,04,54,13.70
2014,08,03,04,55,13.70
2014,08,03,04,56,13.70
2014,08,03,04,57,13.70
2014,08,03,04,58,13.70
2014,08,03,04,59,13.70
2014,08,03,05,00,13.70
2014,08,03,05,01,13.70
2014,08,03,05,02,13.60
2014,08,03,05,03,13.60
2014,08,03,05,04,13.60
2014,08,03,05,05,13.60
2014,08,03,05,06,13.60
2014,08,03,05,07,13.60
2014,08,03,05,08,13.60
2014,08,03,05,09,13.60
2014,08,03,05,10,13.60
2014,08,03,05,11,13.60
2014,08,03,05,12,13.60
2014,08,03,05,13,13.60
2014,08,03,05,14,13.60
2014,08,03,05,15,13.60
2014,08,03,05,16,13.50
2014,08,03,05,17,13.50
2014,08,03,05,18,13.50
2014,08,03,05,19,13.50
2014,08,03,05,20,13.50
2014,08,03,05,21,13.50
2014,08,03,05,22,13.50
2014,08,03,05,23,13.50
2014,08,03,05,24,13.50
2014,08,03,05,25,13.40
2014,08,03,05,26,13.40
2014,08,03,05,27,13.40
2014,08,03,05,28,13.40
2014,08,03,05,29,13.40
2014,08,03,05,30,13.40
2014,08,03,05,31,13.40
2014,08,03,05,32,13.40
2014,08,03,05,33,13.40
2014,08,03,05,34,13.30
2014,08,03,05,35,13.30
2014,08,03,05,36,13.30
2014,08,03,05,37,13.30
2014,08,03,05,38,13.30
2014,08,03,05,39,13.30
2014,08,03,05,40,13.30
2014,08,03,05,41,13.30
2014,08,03,05,42,13.30
2014,08,03,05,43,13.20
2014,08,03,05,44,13.20
2014,08,03,05,45,13.20
2014,08,03,05,46,13.20
2014,08,03,05,47,13.20
2014,08,03,05,48,13.20
2014,08,03,05,49,13.20
2014,08,03,05,50,13.20
2014,08,03,05,51,13.20
2014,08,03,05,52,13.20
2014,08,03,05,53,13.20
2014,08,03,05,54,13.10
2014,08,03,05,55,13.10
2014,08,03,05,56,13.10
2014,08,03,05,57,13.10
2014,08,03,05,58,13.10
2014,08,03,05,59,13.10
2014,08,03,06,00,13.10
2014,08,03,06,01,13.10
2014,08,03,06,02,13.10
2014,08,03,06,03,13.10
2014,08,03,06,04,13.10
2014,08,03,06,05,13.10
2014,08,03,06,06,13.00
2014,08,03,06,07,13.00
2014,08,03,06,08,13.00
2014,08,03,06,09,13.00
2014,08,03,06,10,12.90
2014,08,03,06,11,12.90
2014,08,03,06,12,12.90
2014,08,03,06,13,12.90
2014,08,03,06,14,12.90
2014,08,03,06,15,12.90
2014,08,03,06,16,12.90
2014,08,03,06,17,12.90
2014,08,03,06,18,12.90
2014,08,03,06,19,12.90
2014,08,03,06,20,12.80
2014,08,03,06,21,12.80
2014,08,03,06,22,12.80
2014,08,03,06,23,12.80
2014,08,03,06,24,12.80
2014,08,03,06,25,12.80
2014,08,03,06,26,12.80
2014,08,03,06,27,12.80
2014,08,03,06,28,12.80
2014,08,03,06,29,12.80
2014,08,03,06,30,12.80
2014,08,03,06,31,12.80
2014,08,03,06,32,12.80
2014,08,03,06,33,12.80
2014,08,03,06,34,12.80
2014,08,03,06,35,12.80
2014,08,03,06,36,12.80
2014,08,03,06,37,12.80
2014,08,03,06,38,12.80
2014,08,03,06,39,12.80
2014,08,03,06,40,12.80
2014,08,03,06,41,12.80
2014,08,03,06,42,12.80
2014,08,03,06,43,12.80
2014,08,03,06,44,12.80
2014,08,03,06,45,12.80
2014,08,03,06,46,12.80
2014,08,03,06,47,12.80
2014,08,03,06,48,12.80
2014,08,03,06,49,12.80
2014,08,03,06,50,12.80
2014,08,03,06,51,12.80
2014,08,03,06,52,12.80
2014,08,03,06,53,12.80
2014,08,03,06,54,12.80
2014,08,03,06,55,12.80
2014,08,03,06,56,12.80
2014,08,03,06,57,12.80
2014,08,03,06,58,12.80
2014,08,03,06,59,12.80
2014,08,03,07,00,12.80
2014,08,03,07,01,12.80
2014,08,03,07,02,12.80
2014,08,03,07,03,12.80
2014,08,03,07,04,12.80
2014,08,03,07,05,12.80
2014,08,03,07,06,12.80
2014,08,03,07,07,12.80
2014,08,03,07,08,12.80
2014,08,03,07,09,12.80
2014,08,03,07,10,12.90
2014,08,03,07,11,12.90
2014,08,03,07,12,12.90
2014,08,03,07,13,12.80
2014,08,03,07,14,12.90
2014,08,03,07,15,12.90
2014,08,03,07,16,12.90
2014,08,03,07,17,12.90
2014,08,03,07,18,12.90
2014,08,03,07,19,12.90
2014,08,03,07,20,12.90
2014,08,03,07,21,12.90
2014,08,03,07,22,13.00
2014,08,03,07,23,13.00
2014,08,03,07,24,13.00
2014,08,03,07,25,13.10
2014,08,03,07,26,13.10
2014,08,03,07,27,13.10
2014,08,03,07,28,13.10
2014,08,03,07,29,13.10
2014,08,03,07,30,13.20
2014,08,03,07,31,13.20
2014,08,03,07,32,13.20
2014,08,03,07,33,13.30
2014,08,03,07,34,13.30
2014,08,03,07,35,13.40
2014,08,03,07,36,13.40
2014,08,03,07,37,13.40
2014,08,03,07,38,13.50
2014,08,03,07,39,13.60
2014,08,03,07,40,13.60
2014,08,03,07,41,13.60
2014,08,03,07,42,13.70
2014,08,03,07,43,13.70
2014,08,03,07,44,13.70
2014,08,03,07,45,13.70
2014,08,03,07,46,13.80
2014,08,03,07,47,13.80
2014,08,03,07,48,13.90
2014,08,03,07,49,14.00
2014,08,03,07,50,14.10
2014,08,03,07,51,14.10
2014,08,03,07,52,14.20
2014,08,03,07,53,14.20
2014,08,03,07,54,14.30
2014,08,03,07,55,14.30
2014,08,03,07,56,14.40
2014,08,03,07,57,14.50
2014,08,03,07,58,14.50
2014,08,03,07,59,14.60
2014,08,03,08,00,14.80
2014,08,03,08,01,15.00
2014,08,03,08,02,15.00
2014,08,03,08,03,15.10
2014,08,03,08,04,15.30
2014,08,03,08,05,15.50
2014,08,03,08,06,15.70
2014,08,03,08,07,15.80
2014,08,03,08,08,16.00
2014,08,03,08,09,16.20
2014,08,03,08,10,16.30
2014,08,03,08,11,16.40
2014,08,03,08,12,16.50
2014,08,03,08,13,16.60
2014,08,03,08,14,16.60
2014,08,03,08,15,16.70
2014,08,03,08,16,16.70
2014,08,03,08,17,16.80
2014,08,03,08,18,16.80
2014,08,03,08,19,16.80
2014,08,03,08,20,16.90
2014,08,03,08,21,16.90
2014,08,03,08,22,17.00
2014,08,03,08,23,17.00
2014,08,03,08,24,17.10
2014,08,03,08,25,17.10
2014,08,03,08,26,17.20
2014,08,03,08,27,17.20
2014,08,03,08,28,17.30
2014,08,03,08,29,17.30
2014,08,03,08,30,17.30
2014,08,03,08,31,17.40
2014,08,03,08,32,17.40
2014,08,03,08,33,17.50
2014,08,03,08,34,17.60
2014,08,03,08,35,17.60
2014,08,03,08,36,17.70
2014,08,03,08,37,17.70
2014,08,03,08,38,17.80
2014,08,03,08,39,17.80
2014,08,03,08,40,17.90
2014,08,03,08,41,17.90
2014,08,03,08,42,17.90
2014,08,03,08,43,18.00
2014,08,03,08,44,18.10
2014,08,03,08,45,18.20
2014,08,03,08,46,18.30
2014,08,03,08,47,18.40
2014,08,03,08,48,18.40
2014,08,03,08,49,18.50
2014,08,03,08,50,18.60
2014,08,03,08,51,18.70
2014,08,03,08,52,18.80
2014,08,03,08,53,18.80
2014,08,03,08,54,18.90
2014,08,03,08,55,19.00
2014,08,03,08,56,19.10
2014,08,03,08,57,19.20
2014,08,03,08,58,19.20
2014,08,03,08,59,19.30
2014,08,03,09,00,19.30
2014,08,03,09,01,19.40
2014,08,03,09,02,19.50
2014,08,03,09,03,19.60
2014,08,03,09,04,19.60
2014,08,03,09,05,19.70
2014,08,03,09,06,19.80
2014,08,03,09,07,19.90
2014,08,03,09,08,19.90
2014,08,03,09,09,20.00
2014,08,03,09,10,20.10
2014,08,03,09,11,20.10
2014,08,03,09,12,20.20
2014,08,03,09,13,20.30
2014,08,03,09,14,20.40
2014,08,03,09,15,20.50
2014,08,03,09,16,20.60
2014,08,03,09,17,20.60
2014,08,03,09,18,20.70
2014,08,03,09,19,20.80
2014,08,03,09,20,20.80
2014,08,03,09,21,20.90
2014,08,03,09,22,21.00
2014,08,03,09,23,21.20
2014,08,03,09,24,21.30
2014,08,03,09,25,21.40
2014,08,03,09,26,21.40
2014,08,03,09,27,21.50
2014,08,03,09,28,21.60
2014,08,03,09,29,21.70
2014,08,03,09,30,21.80
2014,08,03,09,31,21.80
2014,08,03,09,32,21.90
2014,08,03,09,33,21.90
2014,08,03,09,34,22.00
2014,08,03,09,35,22.10
2014,08,03,09,36,22.10
2014,08,03,09,37,22.20
2014,08,03,09,38,22.30
2014,08,03,09,39,22.30
2014,08,03,09,40,22.40
2014,08,03,09,41,22.40
2014,08,03,09,42,22.50
2014,08,03,09,43,22.50
2014,08,03,09,44,22.60
2014,08,03,09,45,22.60
2014,08,03,09,46,22.60
2014,08,03,09,47,22.60
2014,08,03,09,48,22.70
2014,08,03,09,49,22.70
2014,08,03,09,50,22.70
2014,08,03,09,51,22.80
2014,08,03,09,52,22.80
2014,08,03,09,53,22.80
2014,08,03,09,54,22.90
2014,08,03,09,55,22.90
2014,08,03,09,56,23.00
2014,08,03,09,57,23.00
2014,08,03,09,58,23.10
2014,08,03,09,59,23.10
2014,08,03,10,00,23.20
2014,08,03,10,01,23.30
2014,08,03,10,02,23.30
2014,08,03,10,03,23.40
2014,08,03,10,04,23.40
2014,08,03,10,05,23.60
2014,08,03,10,06,23.70
2014,08,03,10,07,23.80
2014,08,03,10,08,23.90
2014,08,03,10,09,23.90
2014,08,03,10,10,24.00
2014,08,03,10,11,24.10
2014,08,03,10,12,24.20
2014,08,03,10,13,24.20
2014,08,03,10,14,24.30
2014,08,03,10,15,24.30
2014,08,03,10,16,24.30
2014,08,03,10,17,24.30
2014,08,03,10,18,24.30
2014,08,03,10,19,24.30
2014,08,03,10,20,24.40
2014,08,03,10,21,24.40
2014,08,03,10,22,24.50
2014,08,03,10,23,24.50
2014,08,03,10,24,24.60
2014,08,03,10,25,24.60
2014,08,03,10,26,24.70
2014,08,03,10,27,24.70
2014,08,03,10,28,24.80
2014,08,03,10,29,24.80
2014,08,03,10,30,24.80
2014,08,03,10,31,24.80
2014,08,03,10,32,24.80
2014,08,03,10,33,24.80
2014,08,03,10,34,24.90
2014,08,03,10,35,24.90
2014,08,03,10,36,24.90
2014,08,03,10,37,24.90
2014,08,03,10,38,24.90
2014,08,03,10,39,24.90
2014,08,03,10,40,25.00
2014,08,03,10,41,25.00
2014,08,03,10,42,25.10
2014,08,03,10,43,25.10
2014,08,03,10,44,25.10
2014,08,03,10,45,25.20
2014,08,03,10,46,25.20
2014,08,03,10,47,25.20
2014,08,03,10,48,25.20
2014,08,03,10,49,25.20
2014,08,03,10,50,25.30
2014,08,03,10,51,25.30
2014,08,03,10,52,25.30
2014,08,03,10,53,25.40
2014,08,03,10,54,25.50
2014,08,03,10,55,25.60
2014,08,03,10,56,25.70
2014,08,03,10,57,25.70
2014,08,03,10,58,25.80
2014,08,03,10,59,25.80
2014,08,03,11,00,25.90
2014,08,03,11,01,25.90
2014,08,03,11,02,26.00
2014,08,03,11,03,26.10
2014,08,03,11,04,26.20
2014,08,03,11,05,26.30
2014,08,03,11,06,26.30
2014,08,03,11,07,26.30
2014,08,03,11,08,26.40
2014,08,03,11,09,26.40
2014,08,03,11,10,26.50
2014,08,03,11,11,26.50
2014,08,03,11,12,26.60
2014,08,03,11,13,26.50
2014,08,03,11,14,26.50
2014,08,03,11,15,26.40
2014,08,03,11,16,26.40
2014,08,03,11,17,26.40
2014,08,03,11,18,26.40
2014,08,03,11,19,26.40
2014,08,03,11,20,26.40
2014,08,03,11,21,26.50
2014,08,03,11,22,26.50
2014,08,03,11,23,26.50
2014,08,03,11,24,26.40
2014,08,03,11,25,26.40
2014,08,03,11,26,26.40
2014,08,03,11,27,26.40
2014,08,03,11,28,26.40
2014,08,03,11,29,26.40
2014,08,03,11,30,26.50
2014,08,03,11,31,26.50
2014,08,03,11,32,26.60
2014,08,03,11,33,26.70
2014,08,03,11,34,26.80
2014,08,03,11,35,26.80
2014,08,03,11,36,26.90
2014,08,03,11,37,26.90
2014,08,03,11,38,27.00
2014,08,03,11,39,27.00
2014,08,03,11,40,27.10
2014,08,03,11,41,27.10
2014,08,03,11,42,27.10
2014,08,03,11,43,27.20
2014,08,03,11,44,27.20
2014,08,03,11,45,27.30
2014,08,03,11,46,27.30
2014,08,03,11,47,27.30
2014,08,03,11,48,27.40
2014,08,03,11,49,27.50
2014,08,03,11,50,27.50
2014,08,03,11,51,27.60
2014,08,03,11,52,27.70
2014,08,03,11,53,27.70
2014,08,03,11,54,27.80
2014,08,03,11,55,27.80
2014,08,03,11,56,27.90
2014,08,03,11,57,27.90
2014,08,03,11,58,27.90
2014,08,03,11,59,27.90
2014,08,03,12,00,27.90
2014,08,03,12,01,27.90
2014,08,03,12,02,27.90
2014,08,03,12,03,27.90
2014,08,03,12,04,27.90
2014,08,03,12,05,27.90
2014,08,03,12,06,27.90
2014,08,03,12,07,27.90
2014,08,03,12,08,27.90
2014,08,03,12,09,27.90
2014,08,03,12,10,27.90
2014,08,03,12,11,27.90
2014,08,03,12,12,27.90
2014,08,03,12,13,27.90
2014,08,03,12,14,28.00
2014,08,03,12,15,27.90
2014,08,03,12,16,27.90
2014,08,03,12,17,27.90
2014,08,03,12,18,27.90
2014,08,03,12,19,28.00
2014,08,03,12,20,28.00
2014,08,03,12,21,28.10
2014,08,03,12,22,28.10
2014,08,03,12,23,28.20
2014,08,03,12,24,28.20
2014,08,03,12,25,28.20
2014,08,03,12,26,28.30
2014,08,03,12,27,28.30
2014,08,03,12,28,28.30
2014,08,03,12,29,28.30
2014,08,03,12,30,28.30
2014,08,03,12,31,28.30
2014,08,03,12,32,28.30
2014,08,03,12,33,28.30
2014,08,03,12,34,28.30
2014,08,03,12,35,28.30
2014,08,03,12,36,28.40
2014,08,03,12,37,28.40
2014,08,03,12,38,28.40
2014,08,03,12,39,28.50
2014,08,03,12,40,28.50
2014,08,03,12,41,28.60
2014,08,03,12,42,28.60
2014,08,03,12,43,28.60
2014,08,03,12,44,28.50
2014,08,03,12,45,28.40
2014,08,03,12,46,28.40
2014,08,03,12,47,28.40
2014,08,03,12,48,28.40
2014,08,03,12,49,28.40
2014,08,03,12,50,28.50
2014,08,03,12,51,28.50
2014,08,03,12,52,28.60
2014,08,03,12,53,28.70
2014,08,03,12,54,28.70
2014,08,03,12,55,28.70
2014,08,03,12,56,28.80
2014,08,03,12,57,28.80
2014,08,03,12,58,28.80
2014,08,03,12,59,28.80
2014,08,03,13,00,28.90
2014,08,03,13,01,28.90
2014,08,03,13,02,29.00
2014,08,03,13,03,29.10
2014,08,03,13,04,29.00
2014,08,03,13,05,29.00
2014,08,03,13,06,29.00
2014,08,03,13,07,29.10
2014,08,03,13,08,29.10
2014,08,03,13,09,29.20
2014,08,03,13,10,29.20
2014,08,03,13,11,29.20
2014,08,03,13,12,29.10
2014,08,03,13,13,29.10
2014,08,03,13,14,29.10
2014,08,03,13,15,29.20
2014,08,03,13,16,29.20
2014,08,03,13,17,29.30
2014,08,03,13,18,29.40
2014,08,03,13,19,29.40
2014,08,03,13,20,29.40
2014,08,03,13,21,29.40
2014,08,03,13,22,29.40
2014,08,03,13,23,29.40
2014,08,03,13,24,29.50
2014,08,03,13,25,29.50
2014,08,03,13,26,29.50
2014,08,03,13,27,29.50
2014,08,03,13,28,29.50
2014,08,03,13,29,29.50
2014,08,03,13,30,29.50
2014,08,03,13,31,29.40
2014,08,03,13,32,29.50
2014,08,03,13,33,29.50
2014,08,03,13,34,29.60
2014,08,03,13,35,29.70
2014,08,03,13,36,29.70
2014,08,03,13,37,29.80
2014,08,03,13,38,29.80
2014,08,03,13,39,29.90
2014,08,03,13,40,29.90
2014,08,03,13,41,30.00
2014,08,03,13,42,30.00
2014,08,03,13,43,30.10
2014,08,03,13,44,30.10
2014,08,03,13,45,30.10
2014,08,03,13,46,30.00
2014,08,03,13,47,30.00
2014,08,03,13,48,30.00
2014,08,03,13,49,30.00
2014,08,03,13,50,30.00
2014,08,03,13,51,30.10
2014,08,03,13,52,30.10
2014,08,03,13,53,30.10
2014,08,03,13,54,30.10
2014,08,03,13,55,30.10
2014,08,03,13,56,30.10
2014,08,03,13,57,30.10
2014,08,03,13,58,30.10
2014,08,03,13,59,30.10
2014,08,03,14,00,30.00
2014,08,03,14,01,30.00
2014,08,03,14,02,29.90
2014,08,03,14,03,29.90
2014,08,03,14,04,29.80
2014,08,03,14,05,29.80
2014,08,03,14,06,29.80
2014,08,03,14,07,29.80
2014,08,03,14,08,29.90
2014,08,03,14,09,30.00
2014,08,03,14,10,30.00
2014,08,03,14,11,30.00
2014,08,03,14,12,30.10
2014,08,03,14,13,30.10
2014,08,03,14,14,30.10
2014,08,03,14,15,30.10
2014,08,03,14,16,30.10
2014,08,03,14,17,30.10
2014,08,03,14,18,30.10
2014,08,03,14,19,30.10
2014,08,03,14,20,30.10
2014,08,03,14,21,30.20
2014,08,03,14,22,30.30
2014,08,03,14,23,30.30
2014,08,03,14,24,30.30
2014,08,03,14,25,30.30
2014,08,03,14,26,30.40
2014,08,03,14,27,30.40
2014,08,03,14,28,30.40
2014,08,03,14,29,30.40
2014,08,03,14,30,30.40
2014,08,03,14,31,30.40
2014,08,03,14,32,30.40
2014,08,03,14,33,30.50
2014,08,03,14,34,30.50
2014,08,03,14,35,30.50
2014,08,03,14,36,30.50
2014,08,03,14,37,30.50
2014,08,03,14,38,30.50
2014,08,03,14,39,30.50
2014,08,03,14,40,30.50
2014,08,03,14,41,30.50
2014,08,03,14,42,30.60
2014,08,03,14,43,30.60
2014,08,03,14,44,30.60
2014,08,03,14,45,30.60
2014,08,03,14,46,30.60
2014,08,03,14,47,30.70
2014,08,03,14,48,30.80
2014,08,03,14,49,30.80
2014,08,03,14,50,30.80
2014,08,03,14,51,30.80
2014,08,03,14,52,30.80
2014,08,03,14,53,30.80
2014,08,03,14,54,30.80
2014,08,03,14,55,30.80
2014,08,03,14,56,30.80
2014,08,03,14,57,30.80
2014,08,03,14,58,30.80
2014,08,03,14,59,30.80
2014,08,03,15,00,30.80
2014,08,03,15,01,30.80
2014,08,03,15,02,30.80
2014,08,03,15,03,30.80
2014,08,03,15,04,30.90
2014,08,03,15,05,30.90
2014,08,03,15,06,30.90
2014,08,03,15,07,30.90
2014,08,03,15,08,30.90
2014,08,03,15,09,30.90
2014,08,03,15,10,30.90
2014,08,03,15,11,30.90
2014,08,03,15,12,30.90
2014,08,03,15,13,30.90
2014,08,03,15,14,31.00
2014,08,03,15,15,30.90
2014,08,03,15,16,30.90
2014,08,03,15,17,30.90
2014,08,03,15,18,30.90
2014,08,03,15,19,30.90
2014,08,03,15,20,30.90
2014,08,03,15,21,30.90
2014,08,03,15,22,30.90
2014,08,03,15,23,31.00
2014,08,03,15,24,31.00
2014,08,03,15,25,31.10
2014,08,03,15,26,31.20
2014,08,03,15,27,31.20
2014,08,03,15,28,31.20
2014,08,03,15,29,31.20
2014,08,03,15,30,31.20
2014,08,03,15,31,31.20
2014,08,03,15,32,31.20
2014,08,03,15,33,31.20
2014,08,03,15,34,31.20
2014,08,03,15,35,31.20
2014,08,03,15,36,31.20
2014,08,03,15,37,31.30
2014,08,03,15,38,31.30
2014,08,03,15,39,31.20
2014,08,03,15,40,31.20
2014,08,03,15,41,31.20
2014,08,03,15,42,31.20
2014,08,03,15,43,31.20
2014,08,03,15,44,31.30
2014,08,03,15,45,31.30
2014,08,03,15,46,31.30
2014,08,03,15,47,31.40
2014,08,03,15,48,31.40
2014,08,03,15,49,31.50
2014,08,03,15,50,31.60
2014,08,03,15,51,31.60
2014,08,03,15,52,31.60
2014,08,03,15,53,31.60
2014,08,03,15,54,31.60
2014,08,03,15,55,31.60
2014,08,03,15,56,31.60
2014,08,03,15,57,31.50
2014,08,03,15,58,31.40
2014,08,03,15,59,31.40
2014,08,03,16,00,31.30
2014,08,03,16,01,31.40
2014,08,03,16,02,31.40
2014,08,03,16,03,31.40
2014,08,03,16,04,31.50
2014,08,03,16,05,31.50
2014,08,03,16,06,31.60
2014,08,03,16,07,31.50
2014,08,03,16,08,31.50
2014,08,03,16,09,31.40
2014,08,03,16,10,31.30
2014,08,03,16,11,31.30
2014,08,03,16,12,31.30
2014,08,03,16,13,31.20
2014,08,03,16,14,31.30
2014,08,03,16,15,31.30
2014,08,03,16,16,31.30
2014,08,03,16,17,31.30
2014,08,03,16,18,31.40
2014,08,03,16,19,31.40
2014,08,03,16,20,31.40
2014,08,03,16,21,31.40
2014,08,03,16,22,31.40
2014,08,03,16,23,31.30
2014,08,03,16,24,31.30
2014,08,03,16,25,31.30
2014,08,03,16,26,31.30
2014,08,03,16,27,31.30
2014,08,03,16,28,31.30
2014,08,03,16,29,31.30
2014,08,03,16,30,31.30
2014,08,03,16,31,31.40
2014,08,03,16,32,31.40
2014,08,03,16,33,31.40
2014,08,03,16,34,31.40
2014,08,03,16,35,31.40
2014,08,03,16,36,31.30
2014,08,03,16,37,31.30
2014,08,03,16,38,31.30
2014,08,03,16,39,31.30
2014,08,03,16,40,31.30
2014,08,03,16,41,31.30
2014,08,03,16,42,31.30
2014,08,03,16,43,31.30
2014,08,03,16,44,31.40
2014,08,03,16,45,31.40
2014,08,03,16,46,31.50
2014,08,03,16,47,31.50
2014,08,03,16,48,31.40
2014,08,03,16,49,31.40
2014,08,03,16,50,31.40
2014,08,03,16,51,31.30
2014,08,03,16,52,31.30
2014,08,03,16,53,31.30
2014,08,03,16,54,31.30
2014,08,03,16,55,31.30
2014,08,03,16,56,31.30
2014,08,03,16,57,31.30
2014,08,03,16,58,31.30
2014,08,03,16,59,31.30
2014,08,03,17,00,31.30
2014,08,03,17,01,31.30
2014,08,03,17,02,31.30
2014,08,03,17,03,31.30
2014,08,03,17,04,31.20
2014,08,03,17,05,31.20
2014,08,03,17,06,31.10
2014,08,03,17,07,31.10
2014,08,03,17,08,31.10
2014,08,03,17,09,31.10
2014,08,03,17,10,31.00
2014,08,03,17,11,31.00
2014,08,03,17,12,30.90
2014,08,03,17,13,30.90
2014,08,03,17,14,31.00
2014,08,03,17,15,31.00
2014,08,03,17,16,31.00
2014,08,03,17,17,31.00
2014,08,03,17,18,31.00
2014,08,03,17,19,31.00